CYGFM02

Last updated on Tue Sep 22 2026 00:02:53 GMT+0000 (Coordinated Universal Time)

1 41886U 16078C 26264.48257665 .00037712 00000+0 27646-3 0 9999 2 41886 34.9395 294.1903 0003607 76.5720 283.5410 15.72046730544295
UTC large
Height (km)
Speed (km/s)
/
Latitude / Longitude
Inclination (degrees)
Orbital Period (minutes)
Azimuth
Elevation
Range (km)
Doppler Factor

Next 0 passes for location: London (51.5072 / 0.1276)

No passes found over London.
CYGFM02